Preview of NWS' New Version of Forecast
This preview is not operational and should not be used for support decisions.

Regional Weather Roundup (RWR)

Issued by National Weather Service (NWS)

                            
000
ASUS44 KMEG 250310
RWRTN 
TENNESSEE HOURLY STATE WEATHER ROUNDUP
NATIONAL WEATHER SERVICE MEMPHIS TN
1000 PM CDT SUN MAR 24 2019

TNZ002-004-019-021-049-052-054-088>092-250400-
WEST TENNESSEE
  
CITY           SKY/WX    TMP DP  RH WIND       PRES   REMARKS
MEMPHIS INTL   CLOUDY    64  54  69 VRB5      30.03R                  
NWS MEMPHIS      N/A     66 N/A N/A MISG        N/A                   
JACKSON        CLOUDY    62  46  55 SW3       30.03R                  
DYERSBURG      MOCLDY    65  52  62 S5        30.01F                  
SOMERVILLE     MOCLDY    63  48  59 S5        30.02R                  
COVINGTON      CLOUDY    63  52  67 S6        30.01S                  
UNION CITY     CLOUDY    63  52  67 S7        29.98F                  
BOLIVAR        CLOUDY    61  45  55 SE5       30.02S                  
PARIS          CLOUDY    63  46  55 S10       30.00S                  
HUNTINGDON     CLOUDY    64  45  48 S6        30.01S                  
LEXINGTON      CLOUDY    64  43  45 S6        30.03R                  
SELMER         CLOUDY    64  41  42 S3        30.03S                  
SAVANNAH       PTCLDY    63  41  45 S6        30.04R                  
$$

TNZ008-025-027-028-033-062-065-066-250400-
NORTH MIDDLE TENNESSEE
  
CITY           SKY/WX    TMP DP  RH WIND       PRES   REMARKS
NASHVILLE      MOCLDY    58  40  51 S6        30.05F                  
DICKSON        MOCLDY    61  43  51 S8        30.02F                  
CLARKSVILLE    FAIR      63  40  42 S9        30.00F                  
LEBANON        MOCLDY    54  41  62 CALM      30.04S                  
SMYRNA         FAIR      54  44  69 S5        30.06F                  
MURFREESBORO   MOCLDY    57  41  54 SE5       30.04S                  
COOKEVILLE     CLOUDY    55  37  50 CALM      30.07F                  
GALLATIN       PTCLDY    55  41  58 CALM      30.07F                  
CROSSVILLE     FAIR      53  33  46 CALM      30.11F                  
ROCKWOOD       CLOUDY    59  30  33 S5        30.09F                  
$$

TNZ061-075-076-078-094-096-097-250400-
SOUTH MIDDLE TENNESSEE
  
CITY           SKY/WX    TMP DP  RH WIND       PRES   REMARKS
LAWRENCEBURG   PTCLDY    59  43  55 S5        30.06S                  
LEWISBURG      CLEAR     48  45  87 CALM      30.05S                  
FAYETTEVILLE   MOCLDY    61  39  44 S7        30.07F                  
TULLAHOMA      PTCLDY    57  39  51 S5        30.07S                  
WINCHESTER     PTCLDY    54  41  62 CALM      30.08F                  
MCMINNVILLE    MOCLDY    52  41  66 CALM      30.07F                  
COLUMBIA       CLEAR     54  46  76 CALM      30.04S                  
SHELBYVILLE    CLEAR     55  43  62 SE5       30.06F                  
$$

TNZ017-018-042-046-047-250400-
NORTHEAST TENNESSEE
  
CITY           SKY/WX    TMP DP  RH WIND       PRES   REMARKS
TRI CITIES     MOCLDY    56  32  40 CALM      30.12F                  
ELIZABETHTON   CLOUDY    50  37  62 CALM      30.13S                  
GREENEVILLE    MOCLDY    55  30  38 CALM      30.11F                  
$$

TNZ012-013-036-069-073-074-250400-
CENTRAL EAST TENNESSEE
  
CITY           SKY/WX    TMP DP  RH WIND       PRES   REMARKS
KNOXVILLE      MOCLDY    60  34  37 CALM      30.09S                  
OAK RIDGE      FAIR      57  38  48 CALM      30.10F                  
DOWNTOWN KNOXV PTCLDY    54  43  66 CALM      30.10F                  
GATLINBURG     PTCLDY    55  36  47 CALM      30.10S                  
MORRISTOWN     CLOUDY    57  36  44 CALM      30.10S                  
JACKSBORO      MOCLDY    54  36  50 CALM      30.12F                  
$$

TNZ083-085-099-250400-
SOUTHEAST TENNESSEE
  
CITY           SKY/WX    TMP DP  RH WIND       PRES   REMARKS
CHATTANOOGA    MOCLDY    64  38  38 CALM      30.10S                  
DAYTON         CLOUDY    55  45  67 CALM      30.08F                  
$$

SKY/WX REPORTED AS FAIR MEANS FEW OR NO CLOUDS BELOW
12 THOUSAND FEET.